Weather History for New Castle, PA

Change the Weather History Date:

Saturday, October 6, 2012

  Actual Average Record
Temperature  
Mean Temperature 47 °F -  
Max Temperature 55 °F 67 °F 89 °F (1941)
Min Temperature 39 °F 42 °F 26 °F (1958)
Degree Days  
Heating Degree Days 18    
Moisture  
Dew Point 42 °F    
Average Humidity 83    
Maximum Humidity 100    
Minimum Humidity 45    
Precipitation  
Precipitation 0.45 in - - ()
Sea Level Pressure  
Sea Level Pressure 30.01 in    
Wind  
Wind Speed 6 mph (WNW)    
Max Wind Speed 13 mph    
Max Gust Speed -    
Visibility 7 miles    
Events Rain    
Averages and records for this station are not official NWS values.
T = Trace of Precipitation, MM = Missing Value Source: NWS Daily Summary

Daily Weather History Graph

Daily Weather History Graph

Search for Another Location

Airport:

Trip Planner

Search our weather history database for the weather conditions in past years. The results will help you decide how hot, cold, wet, or windy it might be!

Date:

Astronomy

Oct. 06, 2012 Rise Set
Actual Time 7:23 AM EDT 6:54 PM EDT
Civil Twilight 6:56 AM EDT 7:22 PM EDT
Nautical Twilight 6:24 AM EDT 7:53 PM EDT
Astronomical Twilight 5:52 AM EDT 8:25 PM EDT
Moon 11:06 PM EDT (10/6) 1:19 PM EDT (10/6)
Length of Visible Light 12h 25m
Length of Day
11h 30m
Waning Gibbous, 65% of the Moon is Illuminated
Oct 6
Waning Gibbous
Oct 8
Last Quarter
Oct 15
New
Oct 21
First Quarter
Oct 29
Full

Hourly Weather History & Observations

Time (EDT) Temp. Windchill Dew Point Humidity Pressure Visibility Wind Dir Wind Speed Gust Speed Precip Events Conditions
12:56 AM 50.9 °F - 48.9 °F 93% 29.96 in 7.0 mi NNW 5.8 mph - 0.04 in Rain Light Rain
1:36 AM 51.8 °F - 50.0 °F 94% 29.91 in 3.0 mi NNW 5.8 mph - 0.03 in Rain Rain
1:49 AM 51.8 °F - 50.0 °F 94% 29.92 in 2.5 mi WNW 3.5 mph - 0.05 in Rain Rain
1:56 AM 50.9 °F - 50.0 °F 97% 29.93 in 3.0 mi NE 6.9 mph - 0.06 in Rain Rain
2:09 AM 51.8 °F - 48.2 °F 88% 29.90 in 7.0 mi NW 5.8 mph - 0.01 in Rain Light Rain
2:18 AM 50.0 °F - 48.2 °F 94% 29.89 in 6.0 mi NNW 3.5 mph - 0.02 in Rain Light Rain
2:38 AM 50.0 °F - 48.2 °F 94% 29.89 in 7.0 mi NNW 4.6 mph - 0.02 in Rain Light Rain
2:56 AM 50.0 °F - 48.9 °F 96% 29.96 in 4.0 mi WNW 8.1 mph - 0.06 in Rain Rain
3:04 AM 48.2 °F - 48.2 °F 100% 29.93 in 3.0 mi WNW 10.4 mph - 0.03 in Rain Heavy Rain
3:30 AM 46.4 °F 41.1 °F 44.6 °F 93% 29.93 in 4.0 mi NW 11.5 mph - 0.08 in Rain Light Rain
3:56 AM 45.9 °F 42.9 °F 43.9 °F 93% 29.95 in 2.5 mi NNW 5.8 mph - 0.12 in Rain Rain
4:03 AM 46.4 °F 44.3 °F 44.6 °F 93% 29.93 in 3.0 mi WNW 4.6 mph - 0.01 in Rain Rain
4:14 AM 46.4 °F 43.5 °F 44.6 °F 93% 29.93 in 2.5 mi WNW 5.8 mph - 0.06 in Rain Rain
4:25 AM 46.4 °F 44.3 °F 44.6 °F 93% 29.93 in 2.5 mi WNW 4.6 mph - 0.09 in Rain Rain
4:28 AM 46.4 °F 43.5 °F 44.6 °F 93% 29.94 in 3.0 mi West 5.8 mph - 0.09 in Rain Rain
4:43 AM 46.4 °F 42.9 °F 44.6 °F 93% 29.94 in 4.0 mi WNW 6.9 mph - 0.11 in Rain Light Rain
4:56 AM 45.9 °F 43.6 °F 43.9 °F 93% 29.97 in 4.0 mi NW 4.6 mph - 0.13 in Rain Rain
5:26 AM 46.4 °F 43.5 °F 44.6 °F 93% 29.93 in 9.0 mi Variable 5.8 mph - 0.03 in   Overcast
5:56 AM 45.9 °F 42.9 °F 43.9 °F 93% 29.99 in 10.0 mi WNW 5.8 mph - 0.04 in   Overcast
6:19 AM 46.4 °F 43.5 °F 44.6 °F 93% 29.95 in 10.0 mi WNW 5.8 mph - N/A   Overcast
7:34 AM 46.4 °F 44.3 °F 44.6 °F 93% 29.96 in 10.0 mi West 4.6 mph - 0.00 in   Mostly Cloudy
7:45 AM 46.4 °F 44.3 °F 44.6 °F 93% 29.97 in 10.0 mi West 4.6 mph - 0.00 in   Mostly Cloudy
7:56 AM 45.9 °F 42.9 °F 43.9 °F 93% 30.02 in 10.0 mi West 5.8 mph - 0.00 in   Overcast
8:17 AM 46.4 °F 41.9 °F 44.6 °F 93% 29.98 in 6.0 mi West 9.2 mph - N/A   Overcast
8:40 AM 44.6 °F 40.2 °F 44.6 °F 100% 29.99 in 1.8 mi WSW 8.1 mph - N/A   Overcast
8:56 AM 45.0 °F 40.6 °F 43.9 °F 96% 30.04 in 3.0 mi West 8.1 mph - N/A   Overcast
9:31 AM 46.4 °F 42.9 °F 42.8 °F 87% 30.01 in 10.0 mi West 6.9 mph - N/A   Mostly Cloudy
9:41 AM 46.4 °F 41.5 °F 42.8 °F 87% 30.01 in 10.0 mi West 10.4 mph - N/A   Mostly Cloudy
9:56 AM 45.9 °F 40.8 °F 41.9 °F 86% 30.08 in 10.0 mi West 10.4 mph - N/A   Overcast
10:06 AM 46.4 °F 41.9 °F 42.8 °F 87% 30.03 in 10.0 mi West 9.2 mph - N/A   Mostly Cloudy
10:56 AM 46.9 °F - 41.9 °F 83% 30.09 in 10.0 mi West 8.1 mph - N/A   Mostly Cloudy
11:08 AM 48.2 °F - 42.8 °F 82% 30.04 in 10.0 mi WSW 12.7 mph - N/A   Mostly Cloudy
11:26 AM 48.2 °F - 41.0 °F 76% 30.04 in 10.0 mi West 10.4 mph - N/A   Scattered Clouds
11:56 AM 50.0 °F - 39.9 °F 68% 30.09 in 10.0 mi West 10.4 mph - N/A   Partly Cloudy
12:56 PM 52.9 °F - 36.0 °F 53% 30.09 in 10.0 mi WSW 10.4 mph - N/A   Partly Cloudy
1:56 PM 52.9 °F - 36.0 °F 53% 30.08 in 10.0 mi West 12.7 mph - N/A   Partly Cloudy
2:56 PM 55.9 °F - 36.0 °F 47% 30.07 in 10.0 mi West 8.1 mph - N/A   Scattered Clouds
3:56 PM 54.9 °F - 34.0 °F 45% 30.08 in 10.0 mi West 11.5 mph - N/A   Partly Cloudy
4:56 PM 54.9 °F - 34.0 °F 45% 30.08 in 10.0 mi West 10.4 mph - N/A   Scattered Clouds
5:56 PM 52.0 °F - 32.9 °F 48% 30.09 in 10.0 mi West 6.9 mph - N/A   Partly Cloudy
6:56 PM 48.9 °F - 32.9 °F 54% 30.06 in 10.0 mi WNW 5.8 mph - N/A   Mostly Cloudy
7:56 PM 45.9 °F - 34.9 °F 66% 30.14 in 10.0 mi Calm Calm - N/A   Partly Cloudy
8:56 PM 43.0 °F - 36.0 °F 76% 30.16 in 10.0 mi Calm Calm - N/A   Partly Cloudy
9:56 PM 39.9 °F - 36.0 °F 86% 30.16 in 10.0 mi Calm Calm - N/A   Clear
10:56 PM 39.9 °F 36.7 °F 36.0 °F 86% 30.18 in 10.0 mi SSW 4.6 mph - N/A   Clear
11:56 PM 41.9 °F - 36.9 °F 82% 30.17 in 10.0 mi Calm Calm - N/A   Clear